Arctic Village, AK

8:11 AM AKDT on July 27, 2017 (GMT -0800)
Arctic Village

Weather History for PARC - July, 2013

Change the Weather History Date:

Friday, July 5, 2013

  Actual Average Record
Temperature  
Mean Temperature 54 °F -  
Max Temperature 60 °F 72 °F 87 °F (1990)
Min Temperature 48 °F 47 °F 34 °F (1991)
Degree Days  
Heating Degree Days 11    
Growing Degree Days 4 (Base 50)    
Moisture  
Dew Point 38 °F    
Average Humidity 56    
Maximum Humidity 82    
Minimum Humidity 34    
Precipitation  
Precipitation 0.00 in - - ()
Sea Level Pressure  
Sea Level Pressure 29.90 in    
Wind  
Wind Speed 9 mph (SW)    
Max Wind Speed 20 mph    
Max Gust Speed 24 mph    
Visibility 10 miles    
Events      
Averages and records for this station are not official NWS values.
T = Trace of Precipitation, MM = Missing Value Source: NWS Daily Summary

Daily Weather History Graph

Daily Weather History Graph

Search for Another Location

Airport or City:

Trip Planner

Search our weather history database for the weather conditions in past years. The results will help you decide how hot, cold, wet, or windy it might be!

Date:

Astronomy

Jul. 05, 2013 Rise Set
Actual Time 2:19 AM AKDT 1:14 AM AKDT
Civil Twilight Sun does not set Sun does not set
Nautical Twilight Sun does not set Sun does not set
Astronomical Twilight Sun does not set Sun does not set
Moon 1:13 AM AKDT (7/5) 10:33 PM AKDT (7/5)
Length of Visible Light 24h 00m
Length of Day
22h 55m
Waning Crescent, 5% of the Moon is Illuminated
Jul 5
Waning Crescent
Jul 7
New
Jul 15
First Quarter
Jul 22
Full
Jul 29
Last Quarter

Hourly Weather History & Observations

Time (AKDT) Temp. Dew Point Humidity Pressure Visibility Wind Dir Wind Speed Gust Speed Precip Events Conditions
12:16 AM 57.2 °F 39.2 °F 51% 29.86 in 10.0 mi WSW 10.4 mph - N/A   Overcast
12:36 AM 55.4 °F 41.0 °F 58% 29.87 in 10.0 mi WSW 6.9 mph - N/A   Scattered Clouds
12:56 AM 53.6 °F 41.0 °F 62% 29.87 in 10.0 mi WSW 8.1 mph - N/A   Clear
1:16 AM 53.6 °F 39.2 °F 58% 29.87 in 10.0 mi WSW 8.1 mph - N/A   Scattered Clouds
1:36 AM 51.8 °F 41.0 °F 67% 29.87 in 10.0 mi WSW 10.4 mph - N/A   Mostly Cloudy
1:56 AM 51.8 °F 39.2 °F 62% 29.88 in 10.0 mi WSW 9.2 mph - N/A   Partly Cloudy
2:16 AM 51.8 °F 39.2 °F 62% 29.88 in 10.0 mi SW 4.6 mph - N/A   Clear
2:36 AM 50.0 °F 39.2 °F 66% 29.88 in 10.0 mi SW 5.8 mph - N/A   Clear
2:56 AM 50.0 °F 39.2 °F 66% 29.89 in 10.0 mi SW 5.8 mph - N/A   Clear
3:16 AM 48.2 °F 39.2 °F 71% 29.89 in 10.0 mi SW 4.6 mph - N/A   Clear
3:36 AM 50.0 °F 39.2 °F 66% 29.89 in 10.0 mi SW 4.6 mph - N/A   Clear
3:56 AM 50.0 °F 41.0 °F 71% 29.89 in 10.0 mi SSW 4.6 mph - N/A   Clear
4:16 AM 50.0 °F 41.0 °F 71% 29.89 in 10.0 mi SW 6.9 mph - N/A   Clear
4:36 AM 50.0 °F 41.0 °F 71% 29.89 in 10.0 mi South 3.5 mph - N/A   Clear
4:56 AM 48.2 °F 41.0 °F 76% 29.89 in 10.0 mi South 4.6 mph - N/A   Clear
5:16 AM 50.0 °F 41.0 °F 71% 29.89 in 10.0 mi SSW 4.6 mph - N/A   Mostly Cloudy
5:36 AM 50.0 °F 41.0 °F 71% 29.89 in 10.0 mi SW 6.9 mph - N/A   Mostly Cloudy
5:56 AM 50.0 °F 39.2 °F 66% 29.89 in 10.0 mi WSW 11.5 mph - N/A   Partly Cloudy
6:16 AM 50.0 °F 41.0 °F 71% 29.89 in 10.0 mi WSW 8.1 mph - N/A   Clear
6:36 AM 50.0 °F 41.0 °F 71% 29.90 in 10.0 mi WSW 5.8 mph - N/A   Clear
6:56 AM 50.0 °F 41.0 °F 71% 29.90 in 10.0 mi WSW 11.5 mph - N/A   Clear
7:16 AM 48.2 °F 42.8 °F 82% 29.90 in 10.0 mi SW 11.5 mph - N/A   Scattered Clouds
7:36 AM 48.2 °F 42.8 °F 82% 29.91 in 10.0 mi SSW 9.2 mph - N/A   Mostly Cloudy
7:56 AM 48.2 °F 42.8 °F 82% 29.90 in 10.0 mi SW 9.2 mph - N/A   Overcast
8:16 AM 48.2 °F 42.8 °F 82% 29.90 in 10.0 mi SSW 6.9 mph - N/A   Overcast
8:36 AM 48.2 °F 42.8 °F 82% 29.91 in 10.0 mi South 4.6 mph - N/A   Overcast
8:56 AM 48.2 °F 42.8 °F 82% 29.91 in 5.0 mi West 5.8 mph - N/A   Overcast
9:16 AM 48.2 °F 42.8 °F 82% 29.91 in 10.0 mi WSW 3.5 mph - N/A   Overcast
9:36 AM 50.0 °F 42.8 °F 76% 29.91 in 5.0 mi SW 5.8 mph - N/A   Overcast
9:56 AM 50.0 °F 42.8 °F 76% 29.91 in 5.0 mi SW 8.1 mph - N/A   Overcast
10:16 AM 51.8 °F 42.8 °F 71% 29.91 in 8.0 mi SW 4.6 mph - N/A   Overcast
10:36 AM 51.8 °F 44.6 °F 76% 29.91 in 9.0 mi SW 12.7 mph 16.1 mph N/A   Overcast
10:56 AM 51.8 °F 44.6 °F 76% 29.92 in 7.0 mi SW 13.8 mph 17.3 mph N/A   Mostly Cloudy
11:16 AM 51.8 °F 42.8 °F 71% 29.92 in 10.0 mi SW 13.8 mph 18.4 mph N/A   Mostly Cloudy
11:36 AM 53.6 °F 42.8 °F 67% 29.91 in 10.0 mi SW 12.7 mph 18.4 mph N/A   Scattered Clouds
11:56 AM 53.6 °F 41.0 °F 62% 29.91 in 10.0 mi SW 13.8 mph 17.3 mph N/A   Partly Cloudy
12:16 PM 53.6 °F 41.0 °F 62% 29.91 in 10.0 mi WSW 15.0 mph - N/A   Mostly Cloudy
12:36 PM 55.4 °F 39.2 °F 54% 29.91 in 10.0 mi WSW 12.7 mph - N/A   Overcast
12:56 PM 57.2 °F 37.4 °F 48% 29.91 in 10.0 mi WSW 16.1 mph 20.7 mph N/A   Overcast
1:16 PM 57.2 °F 37.4 °F 48% 29.91 in 8.0 mi SW 12.7 mph 18.4 mph N/A   Mostly Cloudy
1:36 PM 59.0 °F 37.4 °F 45% 29.91 in 10.0 mi WSW 12.7 mph 24.2 mph N/A   Overcast
1:56 PM 60.8 °F 35.6 °F 39% 29.91 in 5.0 mi WSW 15.0 mph 23.0 mph N/A   Overcast
2:16 PM 59.0 °F 35.6 °F 42% 29.91 in 10.0 mi SSW 10.4 mph 19.6 mph N/A   Overcast
2:36 PM 59.0 °F 35.6 °F 42% 29.91 in 10.0 mi SW 12.7 mph 21.9 mph N/A   Mostly Cloudy
2:56 PM 60.8 °F 37.4 °F 42% 29.92 in 10.0 mi SSW 12.7 mph 19.6 mph N/A   Scattered Clouds
3:16 PM 60.8 °F 35.6 °F 39% 29.91 in 10.0 mi WSW 15.0 mph 18.4 mph N/A   Mostly Cloudy
3:36 PM 60.8 °F 35.6 °F 39% 29.91 in 10.0 mi SSW 11.5 mph 20.7 mph N/A   Mostly Cloudy
3:56 PM 60.8 °F 33.8 °F 36% 29.91 in 10.0 mi SW 10.4 mph 21.9 mph N/A   Mostly Cloudy
4:16 PM 60.8 °F 33.8 °F 36% 29.91 in 10.0 mi SSW 13.8 mph 20.7 mph N/A   Scattered Clouds
4:36 PM 60.8 °F 33.8 °F 36% 29.91 in 10.0 mi SW 16.1 mph 21.9 mph N/A   Partly Cloudy
4:56 PM 60.8 °F 33.8 °F 36% 29.91 in 10.0 mi SW 19.6 mph 24.2 mph N/A   Mostly Cloudy
5:16 PM 60.8 °F 35.6 °F 39% 29.91 in 10.0 mi West 11.5 mph 16.1 mph N/A   Mostly Cloudy
5:36 PM 59.0 °F 35.6 °F 42% 29.90 in 10.0 mi West 11.5 mph - N/A   Mostly Cloudy
5:56 PM 60.8 °F 33.8 °F 36% 29.90 in 10.0 mi SW 15.0 mph 23.0 mph N/A   Mostly Cloudy
6:16 PM 60.8 °F 32.0 °F 34% 29.90 in 10.0 mi SW 12.7 mph 23.0 mph N/A   Partly Cloudy
6:36 PM 60.8 °F 32.0 °F 34% 29.90 in 10.0 mi SSW 12.7 mph 16.1 mph N/A   Clear
6:56 PM 60.8 °F 33.8 °F 36% 29.90 in 10.0 mi SSW 10.4 mph 21.9 mph N/A   Clear
7:16 PM 60.8 °F 32.0 °F 34% 29.90 in 10.0 mi SW 12.7 mph 24.2 mph N/A   Clear
7:36 PM 60.8 °F 33.8 °F 36% 29.90 in 10.0 mi SW 17.3 mph - N/A   Clear
7:56 PM 60.8 °F 33.8 °F 36% 29.90 in 10.0 mi WSW 17.3 mph 20.7 mph N/A   Clear
8:16 PM 60.8 °F 32.0 °F 34% 29.90 in 10.0 mi SW 11.5 mph 17.3 mph N/A   Clear
8:36 PM 59.0 °F 32.0 °F 36% 29.91 in 10.0 mi SW 13.8 mph - N/A   Clear
8:56 PM 59.0 °F 32.0 °F 36% 29.91 in 10.0 mi SW 15.0 mph 20.7 mph N/A   Clear
9:16 PM 57.2 °F 33.8 °F 41% 29.91 in 10.0 mi SW 11.5 mph 20.7 mph N/A   Clear
9:36 PM 57.2 °F 33.8 °F 41% 29.91 in 10.0 mi SW 11.5 mph - N/A   Clear
9:56 PM 57.2 °F 33.8 °F 41% 29.91 in 10.0 mi SW 13.8 mph 19.6 mph N/A   Clear
10:16 PM 57.2 °F 33.8 °F 41% 29.91 in 10.0 mi SW 11.5 mph - N/A   Clear
10:36 PM 57.2 °F 33.8 °F 41% 29.92 in 10.0 mi SW 13.8 mph 18.4 mph N/A   Clear
10:56 PM 57.2 °F 33.8 °F 41% 29.92 in 10.0 mi SW 10.4 mph 16.1 mph N/A   Clear
11:16 PM 55.4 °F 33.8 °F 44% 29.92 in 10.0 mi SW 11.5 mph - N/A   Clear
11:36 PM 55.4 °F 33.8 °F 44% 29.93 in 10.0 mi WSW 8.1 mph - N/A   Clear
11:56 PM 53.6 °F 33.8 °F 47% 29.93 in 10.0 mi West 6.9 mph - N/A   Clear